Content
SEND FEEDBACK

Daily
Averages
Monthly
Summary
Canada

SOREL, QUEBEC


Home > North America > Canada > Quebec
Elevation: 49 feet     Latitude: 46 28N     Longitude: 073 45W

WEATHER
 
SELECT A DAY
Number of Records: 202,406;   Date Range: 1/1/95 - 11/21/14
 
SHARE

PRINT THIS DATA

[ ← Previous Day ]
WEATHER ALMANAC - JULY 20, 2014
[ Next Day → ]
[ °C ]   °F
Weather ElementAverageHighLow
Temperature74.6 °F82.4 °F (3:00 pm)66.2 °F (5:00 am)
Dewpoint58.7 °F60.8 °F (1:00 am)55.4 °F (4:00 pm)
Humidity57.6 %83 % (5:00 am)37 % (8:00 pm)
Barometer30.13 in30.17 in (8:00 am)30.08 in (5:00 pm)
Wind Speed7 mph11.5 mph (1:00 am)
Weather ElementAverage
Visibility24.6 mi
Wind DirectionSSE (145.4 °)

Weather ElementTotal
Precipitation---
Cooling Degree Days9.3 (Base 65)
Growing Degree Days24.3 (Base 50)
Averaged from 26 records on July 20, 2014
WEATHER CONDITIONS BREAKOUT
WIND DIRECTION BREAKOUT
WEATHER BY HOUR - JULY 20, 2014
[ °C ]   °F
Local TimeTemperatureDewpointHumidityBarometerVisibilityWind DirectionWind SpeedGust SpeedPrecipitationEventsConditions
1:00 AM71.6 °F60.8 °F69 %30.15 in15.0 miSE (140°)11.5 mphMostly Cloudy
2:00 AM70.0 °F60.0 °F64 %30.15 in15.0 miSE (140°)8.1 mphOvercast
2:00 AM69.8 °F60.8 °F73 %30.15 in15.0 miSE (130°)8.1 mphOvercast
3:00 AM68.0 °F60.8 °F78 %30.14 in15.0 miSE (130°)4.6 mphMostly Cloudy
4:00 AM68.0 °F60.8 °F78 %30.14 in15.0 miSE (140°)4.6 mphScattered Clouds
5:00 AM66.2 °F60.8 °F83 %30.15 in15.0 miSSE (150°)5.8 mphMostly Cloudy
6:00 AM68.0 °F59.0 °F73 %30.15 in15.0 miSE (130°)4.6 mphMostly Cloudy
7:00 AM68.0 °F59.0 °F73 %30.16 in30.0 miSouth (170°)3.5 mphMostly Cloudy
8:00 AM70.0 °F60.0 °F61 %30.17 in28.0 miSE (130°)4.6 mphMostly Cloudy
8:00 AM69.8 °F59.0 °F68 %30.17 in30.0 miESE (120°)4.6 mphMostly Cloudy
9:00 AM73.4 °F59.0 °F61 %30.17 in30.0 miSSE (160°)3.5 mphMostly Cloudy
10:00 AM75.2 °F59.0 °F57 %30.16 in30.0 miSSE (150°)4.6 mphMostly Cloudy
11:00 AM75.2 °F60.8 °F61 %30.15 in30.0 miSouth (170°)3.5 mphMostly Cloudy
12:00 PM77.0 °F59.0 °F54 %30.14 in30.0 miESE (120°)5.8 mphMostly Cloudy
1:00 PM78.8 °F59.0 °F51 %30.13 in30.0 miSE (130°)8.1 mphScattered Clouds
2:00 PM80.0 °F59.0 °F38 %30.11 in28.0 miSE (140°)8.1 mphScattered Clouds
2:00 PM80.6 °F59.0 °F48 %30.11 in30.0 miSE (140°)5.8 mphScattered Clouds
3:00 PM82.4 °F57.2 °F42 %30.10 in30.0 miSouth (170°)11.5 mphPartly Cloudy
4:00 PM80.6 °F55.4 °F42 %30.09 in30.0 miSSE (160°)6.9 mphPartly Cloudy
5:00 PM82.4 °F55.4 °F39 %30.08 in30.0 miSouth (170°)9.2 mphPartly Cloudy
6:00 PM80.6 °F55.4 °F42 %30.08 in30.0 miSE (130°)8.1 mphScattered Clouds
8:00 PM78.0 °F57.0 °F37 %30.09 in28.0 miSSE (160°)9.2 mphMostly Cloudy
8:00 PM78.8 °F57.2 °F47 %30.09 in30.0 miSSE (160°)10.4 mphMostly Cloudy
9:00 PM77.0 °F55.4 °F47 %30.09 in30.0 miSSE (150°)5.8 mphMostly Cloudy
10:00 PM77.0 °F57.2 °F50 %30.10 in15.0 miSE (140°)11.5 mphMostly Cloudy
11:00 PM73.4 °F59.0 °F61 %30.10 in15.0 miSSE (150°)9.2 mphMostly Cloudy
Hourly data recorded from CYUL, located miles away from Sorel, Quebec







STORIES FROM OUR PARTNERS